This demonstration page uses our WeatherBlox Daily Observations layout. Learn more.

Left ArrowRight Arrow

34.74481, -87.66753

Hourly Observations for May 11, 2022

Temp ( °F °C ) Dew Point ( °F °C ) Humidity (%) Winds ( mph kmh ) Pressure ( in mb ) Visibility ( mi km ) Precip ( " mm )
12:53 am 00:53 Clear with Mist and Fog 64 17.8 62 16.7 93 93 Calm 30.13 1020 3 5 0.00 0.00
12:55 am 00:55 Clear with Mist and Fog 64 17.8 62 16.7 93 93 Calm 30.14 1021 2 3 0.00 0.00
1:05 am 01:05 Clear with Fog 64 17.8 62 16.7 93 93 Calm 30.13 1020 1 1 0.00 0.00
1:15 am 01:15 Clear with Mist and Fog 65 18.3 63 17.2 93 93 Calm 30.13 1020 2 3 0.00 0.00
1:23 am 01:23 Mostly Cloudy with Mist and Fog 65 18.3 64 17.8 97 97 Calm 30.13 1020 1 1 0.00 0.00
1:38 am 01:38 Clear with Mist and Fog 64 17.8 62 16.7 93 93 Calm 30.12 1020 1 1 0.00 0.00
1:53 am 01:53 Clear with Fog 63 17.2 62 16.7 97 97 Calm 30.11 1020 0 0 0.00 0.00
2:01 am 02:01 Mostly Cloudy with Fog 64 17.8 62 16.7 93 93 Calm 30.12 1020 0 0 0.00 0.00
2:53 am 02:53 Mostly Cloudy with Fog 62 16.7 61 16.1 96 96 ESE 3 6 30.12 1020 0 0 0.00 0.00
3:53 am 03:53 Mostly Cloudy with Fog 62 16.7 60 15.6 93 93 Calm 30.14 1021 0 0 0.00 0.00
4:07 am 04:07 Clear with Fog 62 16.7 61 16.1 96 96 Calm 30.15 1021 1 1 0.00 0.00
4:43 am 04:43 Clear with Mist and Fog 62 16.7 61 16.1 96 96 Calm 30.16 1021 2 3 0.00 0.00
4:48 am 04:48 Clear with Mist and Fog 63 17 61 16 94 94 Calm 30.16 1021 1 1 0.00 0.00
4:53 am 04:53 Clear with Fog 61 16.1 60 15.6 97 97 Calm 30.16 1021 1 1 0.00 0.00
4:55 am 04:55 Mostly Cloudy with Fog 60 15.6 59 15 96 96 Calm 30.17 1022 0 0 0.00 0.00
5:21 am 05:21 Mostly Cloudy with Fog 62 16.7 61 16.1 96 96 Calm 30.18 1022 1 1 0.00 0.00
5:31 am 05:31 Partly Cloudy with Mist and Fog 61 16.1 60 15.6 97 97 Calm 30.19 1022 3 4 0.00 0.00
5:38 am 05:38 Mostly Clear with Mist and Fog 62 16.7 60 15.6 93 93 Calm 30.18 1022 4 6 0.00 0.00
5:48 am 05:48 Mostly Clear with Mist and Fog 61 16 59 15 94 94 Calm 30.20 1023 3 4 0.00 0.00
5:53 am 05:53 Partly Cloudy with Mist and Fog 61 16.1 60 15.6 97 97 Calm 30.19 1022 3 4 0.00 0.00
5:57 am 05:57 Mostly Cloudy with Mist and Fog 62 16.7 61 16.1 96 96 Calm 30.20 1023 1 1 0.00 0.00
6:05 am 06:05 Mostly Cloudy with Fog 61 16.1 60 15.6 97 97 Calm 30.21 1023 1 1 0.00 0.00
6:09 am 06:09 Partly Cloudy with Mist and Fog 61 16.1 60 15.6 97 97 Calm 30.21 1023 2 3 0.00 0.00
6:16 am 06:16 Partly Cloudy with Mist and Fog 62 16.7 61 16.1 96 96 Calm 30.21 1023 2 3 0.00 0.00
6:29 am 06:29 Partly Cloudy with Mist and Fog 61 16.1 60 15.6 97 97 Calm 30.22 1023 4 6 0.00 0.00
6:31 am 06:31 Partly Cloudy with Mist and Fog 61 16.1 60 15.6 97 97 Calm 30.22 1023 2 2 0.00 0.00
6:33 am 06:33 Mostly Cloudy with Mist and Fog 62 16.7 60 15.6 93 93 Calm 30.21 1023 1 1 0.00 0.00
6:45 am 06:45 Sunny with Mist and Fog 63 17.2 62 16.7 97 97 Calm 30.22 1023 1 2 0.00 0.00
6:50 am 06:50 Sunny with Mist and Fog 64 18 63 17 94 94 Calm 30.22 1023 3 5 0.00 0.00
6:53 am 06:53 Sunny with Mist and Fog 64 17.8 63 17.2 96 96 Calm 30.21 1023 4 6 0.00 0.00
7:53 am 07:53 Sunny with Mist and Fog 70 21.1 66 18.9 87 87 Calm 30.23 1024 4 6 0.00 0.00
8:53 am 08:53 Sunny 75 23.9 68 20 79 79 VRB 3 6 30.22 1023 10 16 0.00 0.00
9:53 am 09:53 Sunny 79 26.1 67 19.4 67 67 Calm 30.21 1023 10 16 0.00 0.00
10:53 am 10:53 Mostly Cloudy 81 27.2 67 19.4 62 62 Calm 30.20 1023 10 16 0.00 0.00
11:53 am 11:53 Sunny 84 28.9 68 20 59 59 VRB 5 7 30.18 1022 10 16 0.00 0.00
12:53 pm 12:53 Mostly Cloudy 85 29.4 69 20.6 59 59 NNW 3 6 30.16 1022 10 16 0.00 0.00
1:53 pm 13:53 Mostly Sunny 86 30 69 20.6 57 57 Calm 30.12 1020 10 16 0.00 0.00
2:53 pm 14:53 Sunny 88 31.1 69 20.6 54 54 E 5 7 30.09 1019 10 16 0.00 0.00
3:06 pm 15:06 Hazy 88 31.1 69 20.6 54 54 undefined N/A 30.07 1018 2 3 0.00 0.00
3:20 pm 15:20 Mostly Sunny 88 31.1 69 20.6 54 54 ENE 6 9 30.06 1018 10 16 0.00 0.00
3:53 pm 15:53 Partly Cloudy 89 31.7 69 20.6 52 52 Calm 30.07 1018 10 16 0.00 0.00
4:53 pm 16:53 Sunny 88 31.1 68 20 52 52 E 7 11 30.06 1018 10 16 0.00 0.00
5:53 pm 17:53 Mostly Sunny 87 30.6 70 21.1 57 57 ENE 3 6 30.05 1018 10 16 0.00 0.00
6:53 pm 18:53 Mostly Sunny 84 28.9 72 22.2 67 67 E 3 6 30.06 1018 10 16 0.00 0.00
7:53 pm 19:53 Partly Cloudy 79 26.1 72 22.2 79 79 Calm 30.06 1018 10 16 0.00 0.00
8:53 pm 20:53 Clear 76 24.4 70 21.1 82 82 Calm 30.05 1018 10 16 0.00 0.00
9:53 pm 21:53 Clear 74 23.3 70 21.1 88 88 Calm 30.07 1018 10 16 0.00 0.00
10:53 pm 22:53 Mostly Clear 73 22.8 70 21.1 90 90 Calm 30.07 1018 8 13 0.00 0.00
11:53 pm 23:53 Mostly Clear with Mist and Fog 72 22.2 69 20.6 91 91 Calm 30.06 1018 6 10 0.00 0.00

Powered by AerisWeather